This demonstration page uses our WeatherBlox Daily Observations layout. Learn more.

Left ArrowRight Arrow

44.8408, -93.29828

Hourly Observations for April 22, 2022

Temp ( °F °C ) Dew Point ( °F °C ) Humidity (%) Winds ( mph kmh ) Pressure ( in mb ) Visibility ( mi km ) Precip ( " mm )
12:53 am 00:53 Mostly Clear 46 7.8 31 -0.6 56 56 E 10 17 30.32 1027 10 16 0.00 0.00
1:53 am 01:53 Mostly Clear 47 8.3 31 -0.6 54 54 E 12 19 30.28 1026 10 16 0.00 0.00
2:53 am 02:53 Mostly Cloudy 48 8.9 31 -0.6 52 52 ESE 16 26 30.26 1025 10 16 0.00 0.00
3:53 am 03:53 Mostly Cloudy 46 7.8 31 -0.6 56 56 E 12 19 30.25 1025 10 16 0.00 0.00
4:53 am 04:53 Mostly Cloudy 47 8.3 31 -0.6 54 54 E 9 15 30.24 1024 10 16 0.00 0.00
5:53 am 05:53 Cloudy with Light Rain 46 7.8 34 1.1 63 63 E 14 22 30.23 1024 10 16 0.01 0.25
6:53 am 06:53 Cloudy with Light Rain 44 6.7 35 1.7 71 71 ESE 12 19 30.24 1024 10 16 0.04 1.02
7:03 am 07:03 Cloudy with Light Rain 44 6.7 35 1.7 71 71 ESE 16 26 30.25 1024 10 16 0.00 0.00
7:53 am 07:53 Cloudy with Light Rain 43 6.1 36 2.2 76 76 ESE 14 22 30.23 1024 9 14 0.05 1.27
8:23 am 08:23 Cloudy with Light Rain 42 5.6 36 2.2 79 79 ESE 22 35 30.20 1023 7 11 0.04 1.02
8:53 am 08:53 Mostly Cloudy with Light Rain 42 5.6 37 2.8 82 82 ESE 20 31 30.17 1022 8 13 0.05 1.27
9:29 am 09:29 Cloudy with Light Rain 42 5.6 37 2.8 82 82 ESE 16 26 30.21 1023 8 13 0.02 0.51
9:53 am 09:53 Cloudy with Light Rain 42 5.6 39 3.9 89 89 ESE 16 26 30.18 1022 10 16 0.02 0.51
10:07 am 10:07 Cloudy 43 6.1 39 3.9 86 86 ESE 15 24 30.18 1022 10 16 0.00 0.00
10:33 am 10:33 Cloudy with Light Rain 43 6.1 39 3.9 86 86 ESE 23 37 30.16 1021 9 14 0.00 0.00
10:53 am 10:53 Cloudy with Light Rain 43 6.1 39 3.9 86 86 ESE 22 35 30.16 1021 10 16 0.01 0.25
11:53 am 11:53 Cloudy 44 6.7 40 4.4 85 85 ESE 15 24 30.14 1021 10 16 0.00 0.00
12:53 pm 12:53 Cloudy 45 7.2 41 5 86 86 ESE 24 39 30.10 1019 10 16 0.00 0.00
1:40 pm 13:40 Cloudy 46 7.8 42 5.6 86 86 ESE 24 39 30.06 1018 10 16 0.01 0.25
1:53 pm 13:53 Cloudy 46 7.8 42 5.6 86 86 ESE 24 39 30.04 1017 10 16 0.01 0.25
2:35 pm 14:35 Cloudy 49 9.4 44 6.7 83 83 SE 24 39 30.01 1016 10 16 0.00 0.00
2:53 pm 14:53 Cloudy 50 10 45 7.2 83 83 SE 20 31 30.00 1016 10 16 0.00 0.00
3:21 pm 15:21 Cloudy 50 10 45 7.2 83 83 SE 22 35 29.98 1015 10 16 0.00 0.00
3:53 pm 15:53 Cloudy 50 10 46 7.8 86 86 SE 20 31 29.96 1015 10 16 0.00 0.00
4:53 pm 16:53 Cloudy with Mist and Fog 50 10 47 8.3 89 89 ESE 17 28 29.93 1014 6 10 0.00 0.00
5:13 pm 17:13 Cloudy with Drizzle 50 10 47 8.3 89 89 ESE 16 26 29.92 1013 2 3 0.00 0.00
5:32 pm 17:32 Cloudy with Drizzle 50 10 47 8.3 89 89 ESE 14 22 29.91 1013 3 4 0.01 0.25
5:40 pm 17:40 Cloudy with Drizzle 50 10 47 8.3 89 89 ESE 14 22 29.90 1013 5 8 0.01 0.25
5:53 pm 17:53 Cloudy with Mist and Fog 50 10 47 8.3 89 89 ESE 17 28 29.90 1012 5 8 0.01 0.25
6:07 pm 18:07 Cloudy with Drizzle 50 10 47 8.3 89 89 ESE 20 31 29.89 1012 3 4 0.00 0.00
6:32 pm 18:32 Cloudy with Drizzle 50 10 47 8.3 89 89 SE 17 28 29.88 1012 3 5 0.00 0.00
6:53 pm 18:53 Cloudy with Drizzle 50 10 48 8.9 93 93 SE 17 28 29.86 1011 4 6 0.00 0.00
7:12 pm 19:12 Cloudy with Drizzle 50 10 48 8.9 93 93 SE 16 26 29.86 1011 5 8 0.00 0.00
7:53 pm 19:53 Cloudy 50 10 48 8.9 93 93 ESE 16 26 29.84 1011 7 11 0.00 0.00
8:53 pm 20:53 Cloudy 51 10.6 49 9.4 92 92 SE 15 24 29.84 1011 8 13 0.00 0.00
9:53 pm 21:53 Cloudy 52 11.1 50 10 93 93 SE 16 26 29.83 1010 8 13 0.00 0.00
10:53 pm 22:53 Cloudy 52 11.1 50 10 93 93 SE 14 22 29.82 1010 8 13 0.00 0.00
11:11 pm 23:11 Cloudy 53 11.7 51 10.6 93 93 SE 16 26 29.79 1009 7 11 0.00 0.00
11:53 pm 23:53 Cloudy 52 11.1 50 10 93 93 SE 13 20 29.79 1009 7 11 0.00 0.00

Powered by AerisWeather